• Em Portugal
  • Lista de países
  • Para 7 dias
  • Temperatura da água
  • Mapas de satélite
  • Mapa do tempo
  • Widgets de tempo
  • user-avatar
    Iniciar Sessão

    Previsão horária em Pegu

    Hoje, 25 Setembro, Terça-feira

    Tempo Temperatura Precipitação Vento Pressão Humidade
    00:00 +30°C° 0 mm 3 m/s 749 mmHg 74%
    01:00 +29°C° 0.4 mm 3 m/s 749 mmHg 76%
    02:00 +29°C° 0.4 mm 3 m/s 749 mmHg 78%
    03:00 +29°C° 0.4 mm 3 m/s 748 mmHg 80%
    04:00 +28°C° 0.4 mm 3 m/s 749 mmHg 81%
    05:00 +28°C° 0.4 mm 3 m/s 749 mmHg 82%
    06:00 +29°C° 0 mm 4 m/s 749 mmHg 84%
    07:00 +30°C° 0.6 mm 4 m/s 749 mmHg 79%
    08:00 +32°C° 0.6 mm 5 m/s 749 mmHg 74%
    09:00 +33°C° 0.6 mm 5 m/s 749 mmHg 69%
    10:00 +34°C° 0.4 mm 5 m/s 749 mmHg 64%
    11:00 +35°C° 0.4 mm 4 m/s 748 mmHg 59%
    12:00 +36°C° 0 mm 4 m/s 749 mmHg 59%
    13:00 +36°C° 0.5 mm 4 m/s 748 mmHg 57%
    14:00 +36°C° 0.5 mm 3 m/s 747 mmHg 55%
    15:00 +36°C° 0.5 mm 2 m/s 747 mmHg 53%
    16:00 +36°C° 0 mm 2 m/s 747 mmHg 56%
    17:00 +35°C° 0 mm 2 m/s 746 mmHg 60%
    18:00 +34°C° 0 mm 2 m/s 746 mmHg 63%
    19:00 +32°C° 0 mm 2 m/s 747 mmHg 65%
    20:00 +33°C° 0 mm 3 m/s 747 mmHg 68%
    21:00 +31°C° 0 mm 3 m/s 748 mmHg 70%
    22:00 +31°C° 0.1 mm 3 m/s 748 mmHg 72%
    23:00 +30°C° 0.1 mm 3 m/s 748 mmHg 74%

    Amanhã, 26 Setembro, Quarta-feira

    Tempo Temperatura Precipitação Vento Pressão Humidade
    00:00 +30°C° 0.1 mm 3 m/s 748 mmHg 77%
    01:00 +29°C° 0.7 mm 3 m/s 748 mmHg 78%
    02:00 +29°C° 0.7 mm 3 m/s 748 mmHg 80%
    03:00 +29°C° 0.7 mm 3 m/s 747 mmHg 82%
    04:00 +28°C° 0.5 mm 3 m/s 748 mmHg 83%
    05:00 +28°C° 0.5 mm 3 m/s 748 mmHg 84%
    06:00 +28°C° 0.5 mm 3 m/s 748 mmHg 85%
    07:00 +29°C° 0 mm 3 m/s 749 mmHg 80%
    08:00 +32°C° 0 mm 4 m/s 749 mmHg 75%
    09:00 +33°C° 0 mm 4 m/s 750 mmHg 70%
    10:00 +34°C° 0.1 mm 4 m/s 749 mmHg 66%
    11:00 +35°C° 0.1 mm 3 m/s 749 mmHg 61%
    12:00 +36°C° 0.1 mm 3 m/s 748 mmHg 57%
    13:00 +36°C° 0 mm 3 m/s 747 mmHg 56%
    14:00 +36°C° 0 mm 2 m/s 747 mmHg 55%
    15:00 +36°C° 0 mm 2 m/s 746 mmHg 54%
    16:00 +36°C° 0 mm 2 m/s 746 mmHg 57%
    17:00 +35°C° 0 mm 2 m/s 746 mmHg 60%
    18:00 +33°C° 0 mm 1 m/s 747 mmHg 64%
    19:00 +32°C° 0 mm 2 m/s 747 mmHg 66%
    20:00 +32°C° 0 mm 2 m/s 748 mmHg 68%
    21:00 +31°C° 0 mm 2 m/s 748 mmHg 70%
    22:00 +31°C° 0 mm 2 m/s 748 mmHg 72%
    23:00 +31°C° 0 mm 3 m/s 748 mmHg 74%

    Depois de amanhã, 27 Setembro, Quinta-feira

    Tempo Temperatura Precipitação Vento Pressão Humidade
    00:00 +30°C° 0 mm 3 m/s 748 mmHg 76%
    01:00 +30°C° 0.4 mm 3 m/s 748 mmHg 78%
    02:00 +30°C° 0.4 mm 3 m/s 748 mmHg 79%
    03:00 +29°C° 0.4 mm 3 m/s 748 mmHg 81%
    04:00 +29°C° 0.4 mm 3 m/s 748 mmHg 82%
    05:00 +29°C° 0.4 mm 3 m/s 748 mmHg 83%
    06:00 +29°C° 0.4 mm 3 m/s 749 mmHg 84%
    07:00 +30°C° 0.1 mm 3 m/s 749 mmHg 79%
    08:00 +32°C° 0.1 mm 4 m/s 749 mmHg 74%
    09:00 +33°C° 0.1 mm 4 m/s 750 mmHg 68%
    10:00 +34°C° 0.1 mm 4 m/s 749 mmHg 64%
    11:00 +36°C° 0.1 mm 3 m/s 749 mmHg 60%
    12:00 +37°C° 0.1 mm 3 m/s 748 mmHg 56%
    13:00 +37°C° 0 mm 2 m/s 748 mmHg 55%
    14:00 +37°C° 0 mm 2 m/s 747 mmHg 54%
    15:00 +36°C° 0 mm 1 m/s 746 mmHg 53%
    16:00 +35°C° 0 mm 1 m/s 746 mmHg 56%
    17:00 +34°C° 0 mm 1 m/s 747 mmHg 59%
    18:00 +33°C° 0 mm 1 m/s 747 mmHg 62%
    19:00 +34°C° 0 mm 2 m/s 747 mmHg 64%
    20:00 +32°C° 0 mm 2 m/s 748 mmHg 66%
    21:00 +32°C° 0 mm 2 m/s 749 mmHg 68%
    22:00 +31°C° 0 mm 2 m/s 749 mmHg 71%
    23:00 +31°C° 0 mm 3 m/s 748 mmHg 73%

    28 Setembro, Sexta-feira

    Tempo Temperatura Precipitação Vento Pressão Humidade
    00:00 +30°C° 0 mm 3 m/s 748 mmHg 75%
    01:00 +30°C° 0 mm 3 m/s 748 mmHg 77%
    02:00 +30°C° 0 mm 3 m/s 748 mmHg 79%
    03:00 +29°C° 0 mm 2 m/s 747 mmHg 80%
    04:00 +29°C° 0 mm 2 m/s 748 mmHg 82%
    05:00 +29°C° 0 mm 2 m/s 748 mmHg 83%
    06:00 +29°C° 0 mm 2 m/s 749 mmHg 84%
    07:00 +30°C° 0.2 mm 3 m/s 749 mmHg 78%
    08:00 +33°C° 0.2 mm 3 m/s 750 mmHg 72%
    09:00 +34°C° 0.2 mm 3 m/s 750 mmHg 67%
    10:00 +35°C° 0.1 mm 3 m/s 750 mmHg 63%
    11:00 +36°C° 0.1 mm 3 m/s 749 mmHg 58%
    12:00 +37°C° 0.1 mm 2 m/s 748 mmHg 54%
    13:00 +37°C° 0 mm 2 m/s 748 mmHg 53%
    14:00 +36°C° 0 mm 1 m/s 747 mmHg 52%
    15:00 +36°C° 0 mm 1 m/s 746 mmHg 51%
    16:00 +35°C° 0 mm 1 m/s 746 mmHg 54%
    17:00 +35°C° 0 mm 1 m/s 747 mmHg 58%
    18:00 +34°C° 0 mm 1 m/s 747 mmHg 61%
    19:00 +34°C° 0 mm 2 m/s 748 mmHg 63%
    20:00 +32°C° 0 mm 2 m/s 748 mmHg 66%
    21:00 +32°C° 0 mm 2 m/s 749 mmHg 68%
    22:00 +32°C° 0 mm 2 m/s 748 mmHg 69%
    23:00 +31°C° 0 mm 2 m/s 748 mmHg 71%

    29 Setembro, Sábado

    Tempo Temperatura Precipitação Vento Pressão Humidade
    00:00 +31°C° 0 mm 2 m/s 748 mmHg 72%
    01:00 +30°C° 0 mm 2 m/s 748 mmHg 74%
    02:00 +30°C° 0 mm 2 m/s 747 mmHg 75%
    03:00 +30°C° 0 mm 2 m/s 747 mmHg 77%
    04:00 +30°C° 0 mm 2 m/s 748 mmHg 79%
    05:00 +29°C° 0 mm 2 m/s 748 mmHg 80%
    06:00 +29°C° 0 mm 2 m/s 749 mmHg 82%
    07:00 +31°C° 0.6 mm 2 m/s 749 mmHg 76%
    08:00 +32°C° 0.6 mm 2 m/s 749 mmHg 71%
    09:00 +35°C° 0.6 mm 3 m/s 750 mmHg 65%
    10:00 +36°C° 0.4 mm 2 m/s 749 mmHg 61%
    11:00 +36°C° 0.4 mm 2 m/s 748 mmHg 58%
    12:00 +36°C° 0.4 mm 1 m/s 748 mmHg 54%
    13:00 +36°C° 0 mm 1 m/s 747 mmHg 53%
    14:00 +36°C° 0 mm 1 m/s 746 mmHg 53%
    15:00 +36°C° 0 mm 1 m/s 746 mmHg 53%
    16:00 +35°C° 0 mm 1 m/s 746 mmHg 56%
    17:00 +34°C° 0 mm 1 m/s 746 mmHg 59%
    18:00 +33°C° 0 mm 1 m/s 747 mmHg 63%
    19:00 +33°C° 0.1 mm 1 m/s 747 mmHg 65%
    20:00 +32°C° 0.1 mm 1 m/s 748 mmHg 67%
    21:00 +32°C° 0.1 mm 1 m/s 748 mmHg 70%
    22:00 +31°C° 0.1 mm 1 m/s 748 mmHg 71%
    23:00 +31°C° 0.1 mm 1 m/s 747 mmHg 73%

    30 Setembro, Domingo

    Tempo Temperatura Precipitação Vento Pressão Humidade
    00:00 +31°C° 0.1 mm 1 m/s 747 mmHg 74%
    01:00 +31°C° 0 mm 1 m/s 747 mmHg 75%
    02:00 +30°C° 0 mm 1 m/s 747 mmHg 76%
    03:00 +30°C° 0 mm 1 m/s 747 mmHg 77%
    04:00 +30°C° 0.6 mm 2 m/s 747 mmHg 79%
    05:00 +30°C° 0.6 mm 2 m/s 748 mmHg 80%
    06:00 +30°C° 0.6 mm 2 m/s 748 mmHg 82%
    07:00 +30°C° 0.8 mm 2 m/s 749 mmHg 78%
    08:00 +31°C° 0.8 mm 2 m/s 749 mmHg 75%
    09:00 +32°C° 0.8 mm 2 m/s 749 mmHg 71%
    10:00 +34°C° 0.1 mm 2 m/s 749 mmHg 67%
    11:00 +35°C° 0.1 mm 2 m/s 748 mmHg 63%
    12:00 +34°C° 0.1 mm 1 m/s 748 mmHg 59%
    13:00 +35°C° 0 mm 1 m/s 747 mmHg 58%
    14:00 +35°C° 0 mm 1 m/s 746 mmHg 57%
    15:00 +35°C° 0 mm 1 m/s 745 mmHg 55%
    16:00 +34°C° 0 mm 1 m/s 746 mmHg 59%
    17:00 +33°C° 0 mm 1 m/s 746 mmHg 62%
    18:00 +30°C° 0 mm 0 m/s 746 mmHg 65%
    19:00 +32°C° 0.1 mm 1 m/s 747 mmHg 67%
    20:00 +32°C° 0.1 mm 1 m/s 747 mmHg 69%
    21:00 +31°C° 0.1 mm 1 m/s 748 mmHg 71%
    22:00 +31°C° 0.2 mm 1 m/s 748 mmHg 73%
    23:00 +30°C° 0.2 mm 1 m/s 747 mmHg 76%
    Mostrar mais